Location: Caracas
(10.5033°N, 66.8422°W)
Time: 19:17:23
(UTC-04:00)

Amateur Radio Satellites - All Passes

Search period start: 21 November 2017 18:47
Search period end: 22 November 2017 18:47
Location: Caracas, 10.5033°N, 66.8422°W

Satellite Date Start Highest point End Downlink Frequencies (MHz)
Time Altitude Azimuth
RS-15 21 Nov 18:47:59 18:59:42 57° 293° (WNW) 19:11:43 29.354- 29.394
UWE-3 21 Nov 18:54:58 18:57:42 16° 76° (ENE) 19:00:21 435.000/436.395/437.385
STARS 21 Nov 18:56:07 18:59:07 18° 285° (WNW) 19:02:08 437.465
SRMSAT 21 Nov 18:56:56 19:02:14 33° 357° (N) 19:07:32 437.500
KAITUO 1B 21 Nov 18:59:21 19:02:02 19° 260° (W) 19:04:43 145.475/437.950
ISS 21 Nov 19:01:21 19:04:37 87° 308° (NW) 19:07:52 437.550
JUGNU 21 Nov 19:01:53 19:07:32 49° 13° (NNE) 19:13:10 437.505
SEEDS 21 Nov 19:03:08 19:07:02 42° 77° (ENE) 19:10:56 437.485
CUTE-I 21 Nov 19:05:51 19:10:21 28° 259° (W) 19:14:52 437.470
AAUSAT CUBESAT 2 21 Nov 19:09:50 19:12:31 17° 76° (ENE) 19:15:13 437.432
HO-68 21 Nov 19:19:32 19:26:42 74° 256° (WSW) 19:33:53 435.675
XW-2A 21 Nov 19:24:32 19:27:30 30° 78° (ENE) 19:30:26 145.665 - 145.685
CUBEBUG 2 21 Nov 19:33:16 19:37:58 72° 259° (WSW) 19:42:34 437.445
AO-73 21 Nov 19:34:34 19:37:47 20° 77° (ENE) 19:40:57 145.935
STRAND 1 21 Nov 19:36:44 19:41:48 75° 102° (ESE) 19:46:52 437.568
Oscar 11 21 Nov 19:50:35 19:53:40 19° 76° (ENE) 19:56:44 .
FO-29 21 Nov 19:52:15 19:57:55 24° 98° (E) 20:03:09 435.910
nSIGHT-1 21 Nov 19:54:46 19:55:25 10° 310° (NW) 19:56:05 .
SO-50 21 Nov 20:08:26 20:12:00 23° 111° (ESE) 20:15:33 436.795
CUTE 1.7 + AOD 2 21 Nov 20:12:37 20:13:03 10° 261° (W) 20:13:29 437.475
ZACube-1 21 Nov 20:18:38 20:23:05 79° 258° (WSW) 20:27:25 437.345
UWE-3 21 Nov 20:30:06 20:33:51 25° 260° (W) 20:37:31 435.000/436.395/437.385
AAUSAT CUBESAT 2 21 Nov 20:44:56 20:47:42 18° 261° (W) 20:50:29 437.432
SRMSAT 21 Nov 20:46:33 20:51:59 36° 7° (N) 20:57:27 437.500
JUGNU 21 Nov 20:50:49 20:56:39 76° 199° (SSW) 21:02:30 437.505
DELFI C3 21 Nov 21:09:47 21:13:19 33° 77° (ENE) 21:16:52 145.870
AO-73 21 Nov 21:10:47 21:13:46 18° 260° (W) 21:16:41 145.935
Oscar 11 21 Nov 21:26:42 21:29:32 17° 260° (W) 21:32:23 .
FO-29 21 Nov 21:35:57 21:42:47 39° 286° (WNW) 21:49:00 435.910
SO-50 21 Nov 21:49:25 21:52:15 16° 296° (WNW) 21:55:04 436.795
EO-88 21 Nov 22:05:20 22:08:56 78° 259° (W) 22:12:32 145.990 - 145.960
Max Valier Satellite 21 Nov 22:08:30 22:11:58 40° 260° (W) 22:15:24 145.860
UNISAT 6 21 Nov 22:20:51 22:24:56 48° 282° (WNW) 22:29:03 437.425
TIGRISAT 21 Nov 22:25:03 22:29:06 47° 282° (WNW) 22:33:12 435.000
LO-87 21 Nov 22:29:27 22:31:27 14° 76° (ENE) 22:33:27 145.935 - 145.965
SRMSAT 21 Nov 22:35:37 22:41:32 63° 16° (NNE) 22:47:28 437.500
JUGNU 21 Nov 22:40:41 22:45:36 28° 202° (SSW) 22:50:33 437.505
ESTCUBE 1 21 Nov 22:43:48 22:46:55 19° 76° (ENE) 22:50:01 437.505/2401.250
PCSat 21 Nov 22:53:05 22:57:56 34° 108° (ESE) 23:02:46 145.827
PRISM 21 Nov 23:09:20 23:13:08 37° 283° (WNW) 23:16:56 437.425
AIST 2D 21 Nov 23:13:30 23:16:56 52° 101° (E) 23:20:23 435.315
DUCHIFAT 1 21 Nov 23:30:17 23:32:35 15° 100° (E) 23:34:55 145.980
EO-79 21 Nov 23:37:15 23:40:47 27° 100° (E) 23:44:18 145.935-145.965
NANOSAT C BR1 21 Nov 23:40:08 23:43:34 25° 100° (E) 23:46:59 145.865
POLYITAN 1 21 Nov 23:52:17 23:56:16 45° 101° (E) 00:00:17 437.675
SPROUT 21 Nov 23:53:11 23:56:48 27° 76° (ENE) 00:00:25 437.525
O/OREOS (USA 219) 21 Nov 23:59:46 00:03:59 40° 74° (ENE) 00:08:11 437.305
LO-87 22 Nov 00:02:24 00:04:35 15° 261° (W) 00:06:46 145.935 - 145.965
QB50P2 22 Nov 00:15:29 00:19:38 68° 282° (WNW) 00:23:48 145.880/145.840
ESTCUBE 1 22 Nov 00:20:12 00:23:26 20° 260° (W) 00:26:42 437.505/2401.250
BUGSAT 1 22 Nov 00:21:02 00:22:25 11° 100° (E) 00:23:47 437.445
SRMSAT 22 Nov 00:24:55 00:30:45 54° 200° (SSW) 00:36:36 437.500
NO-84 22 Nov 00:31:12 00:35:20 71° 239° (WSW) 00:39:15 435.350 FM
VELOX 1 22 Nov 00:36:21 00:40:42 64° 78° (ENE) 00:45:05 145.980
PCSat 22 Nov 00:37:50 00:41:09 16° 294° (WNW) 00:44:29 145.827
Oscar 19 22 Nov 00:48:49 00:52:01 17° 100° (E) 00:55:13 437.125/150
DUCHIFAT 1 22 Nov 01:04:52 01:08:01 21° 284° (WNW) 01:11:10 145.980
EO-79 22 Nov 01:14:42 01:16:12 12° 285° (WNW) 01:17:43 145.935-145.965
NANOSAT C BR1 22 Nov 01:17:10 01:18:58 13° 285° (WNW) 01:20:45 145.865
Gurwin Techsat 1B 22 Nov 01:18:44 01:23:04 25° 101° (E) 01:27:22 435.225
DX 1 22 Nov 01:19:54 01:23:53 37° 76° (ENE) 01:27:53 434.975-435.025
SPROUT 22 Nov 01:30:43 01:32:29 12° 261° (W) 01:34:14 437.525
50 SAT 22 Nov 01:36:00 01:39:12 85° 80° (E) 01:42:25 437.505
BEESAT 2 22 Nov 01:44:25 01:46:53 16° 110° (ESE) 01:49:22 435.950
BUGSAT 1 22 Nov 01:54:19 01:57:33 24° 284° (WNW) 02:00:47 437.445
UKube-1 22 Nov 02:00:03 02:04:20 77° 77° (ENE) 02:08:38 .
BEESAT 3 22 Nov 02:07:17 02:10:54 36° 294° (WNW) 02:14:34 437.485
SRMSAT 22 Nov 02:15:40 02:19:56 20° 202° (SSW) 02:24:13 437.500
AO-7 22 Nov 02:25:46 02:31:02 18° 103° (ESE) 02:36:17 .
Oscar 19 22 Nov 02:26:36 02:31:07 31° 284° (WNW) 02:35:38 437.125/150
Gurwin Techsat 1B 22 Nov 02:58:47 03:02:43 22° 285° (WNW) 03:06:40 435.225
M-CUBED/EXP-1 PRIME 22 Nov 03:00:16 03:04:55 84° 284° (WNW) 03:09:28 437.505
AO-85 22 Nov 03:04:56 03:08:49 64° 111° (ESE) 03:12:37 145.980
BEESAT 22 Nov 03:12:52 03:17:34 58° 77° (ENE) 03:22:14 436.000
BEESAT 2 22 Nov 03:21:35 03:24:20 18° 295° (WNW) 03:27:07 435.950
ITUPSAT 1 22 Nov 03:23:02 03:27:49 77° 77° (ENE) 03:32:35 437.325
MOZHAYETS 4 22 Nov 03:27:56 03:32:27 61° 258° (WSW) 03:36:57
CUBESAT XI-V 22 Nov 03:42:15 03:46:12 29° 77° (ENE) 03:50:10 437.345
RS-15 22 Nov 04:12:56 04:23:03 36° 64° (ENE) 04:32:44 29.354- 29.394
AO-7 22 Nov 04:15:28 04:23:36 59° 287° (WNW) 04:31:47 .
ITAMSAT 1 22 Nov 04:20:27 04:25:26 50° 284° (WNW) 04:30:25 435.822/435.867
YUBILEINY 22 Nov 04:28:21 04:34:40 23° 89° (E) 04:40:59 435.215
DOVE 4 22 Nov 04:38:07 04:42:14 28° 99° (E) 04:46:10 437.250
ISS 22 Nov 04:55:28 04:57:35 16° 51° (NE) 04:59:42 437.550
KKS-1 22 Nov 05:13:16 05:17:44 81° 77° (ENE) 05:22:12 437.445
CUBESAT XI-V 22 Nov 05:21:15 05:23:22 13° 261° (W) 05:25:30 437.345
XW-2D 22 Nov 05:29:47 05:32:02 15° 100° (E) 05:34:16 145.860 - 145.880
STARS 22 Nov 05:35:02 05:39:17 48° 77° (ENE) 05:43:32 437.465
nSIGHT-1 22 Nov 05:43:42 05:46:48 56° 234° (SW) 05:49:54 .
XW-2B 22 Nov 05:43:48 05:46:53 23° 100° (E) 05:49:59 145.730 - 145.750
NUDT-PHONESAT 22 Nov 05:54:47 05:57:38 21° 100° (E) 06:00:31 437.300
CUTE-I 22 Nov 05:59:18 06:04:05 34° 101° (E) 06:08:50 437.470
XW-2C 22 Nov 06:08:46 06:12:32 63° 101° (E) 06:16:20 145.795 - 145.815
LilacSat-2 22 Nov 06:11:55 06:15:45 79° 101° (E) 06:19:37 437.200
DOVE 4 22 Nov 06:16:42 06:19:33 16° 286° (WNW) 06:22:18 437.250
XW-2F 22 Nov 06:18:32 06:22:19 83° 101° (ESE) 06:26:09 145.980 - 146.000
YUBILEINY 22 Nov 06:22:43 06:30:56 46° 275° (W) 06:39:13 435.215
RS-15 22 Nov 06:24:52 06:35:02 41° 252° (WSW) 06:44:55 29.354- 29.394
ISS 22 Nov 06:31:50 06:33:52 16° 236° (SW) 06:35:54 437.550
CUTE 1.7 + AOD 2 22 Nov 06:34:41 06:37:59 22° 100° (E) 06:41:17 437.475
FALCONSAT 3 22 Nov 06:36:18 06:39:56 73° 144° (SE) 06:43:35 435.103
STRAND 1 22 Nov 06:37:32 06:41:12 20° 75° (ENE) 06:44:51 437.568
KAITUO 1B 22 Nov 06:44:49 06:48:29 49° 282° (WNW) 06:52:09 145.475/437.950
UWE-3 22 Nov 07:01:29 07:02:41 11° 100° (E) 07:03:53 435.000/436.395/437.385
SEEDS 22 Nov 07:02:51 07:06:32 29° 100° (E) 07:10:12 437.485
XW-2D 22 Nov 07:03:25 07:05:56 17° 283° (WNW) 07:08:27 145.860 - 145.880
HO-68 22 Nov 07:05:06 07:12:10 63° 104° (ESE) 07:19:12 435.675
AAUSAT CUBESAT 2 22 Nov 07:09:01 07:10:10 11° 99° (E) 07:11:18 437.432
XW-2B 22 Nov 07:19:50 07:20:44 11° 284° (WNW) 07:21:39 145.730 - 145.750
NUDT-PHONESAT 22 Nov 07:30:02 07:31:10 11° 284° (WNW) 07:32:19 437.300
FO-29 22 Nov 07:31:11 07:34:58 17° 70° (ENE) 07:39:00 435.910
AO-73 22 Nov 07:38:44 07:41:08 15° 100° (E) 07:43:33 145.935
CUBEBUG 2 22 Nov 07:40:14 07:44:22 83° 281° (W) 07:48:33 437.445
CUTE-I 22 Nov 07:40:35 07:43:46 16° 286° (WNW) 07:46:58 437.470
Oscar 11 22 Nov 07:54:06 07:56:35 15° 100° (E) 07:59:04 .
CUTE 1.7 + AOD 2 22 Nov 08:11:00 08:13:31 15° 284° (WNW) 08:16:04 437.475
SO-50 22 Nov 08:14:19 08:18:59 64° 248° (WSW) 08:23:41 436.795
STRAND 1 22 Nov 08:15:51 08:20:04 26° 259° (W) 08:24:19 437.568
FALCONSAT 3 22 Nov 08:17:26 08:19:08 13° 330° (NNW) 08:20:51 435.103
ZACube-1 22 Nov 08:22:41 08:26:51 81° 102° (ESE) 08:31:08 437.345
XW-2A 22 Nov 08:34:00 08:36:38 21° 282° (WNW) 08:39:16 145.665 - 145.685
UWE-3 22 Nov 08:35:24 08:38:55 27° 283° (WNW) 08:42:30 435.000/436.395/437.385
SEEDS 22 Nov 08:40:32 08:41:52 11° 285° (WNW) 08:43:11 437.485
AAUSAT CUBESAT 2 22 Nov 08:41:50 08:45:25 28° 283° (WNW) 08:48:58 437.432
HO-68 22 Nov 08:55:56 08:59:19 14° 290° (WNW) 09:02:43 435.675
DELFI C3 22 Nov 09:03:03 09:05:43 17° 99° (E) 09:08:23 145.870
UNISAT 6 22 Nov 09:03:58 09:07:23 21° 76° (ENE) 09:10:45 437.425
TIGRISAT 22 Nov 09:07:59 09:11:25 21° 76° (ENE) 09:14:49 435.000
FO-29 22 Nov 09:13:48 09:19:25 44° 260° (W) 09:25:45 435.910
AO-73 22 Nov 09:13:55 09:17:07 22° 283° (WNW) 09:20:23 145.935
Oscar 11 22 Nov 09:29:04 09:32:29 23° 284° (WNW) 09:35:55 .
JUGNU 22 Nov 09:41:22 09:45:59 23° 158° (SSE) 09:50:35 437.505
PCSat 22 Nov 09:41:46 09:45:04 16° 66° (ENE) 09:48:21 145.827
PRISM 22 Nov 09:43:28 09:45:58 16° 75° (ENE) 09:48:29 437.425
EO-88 22 Nov 09:49:33 09:52:53 34° 100° (E) 09:56:13 145.990 - 145.960
Max Valier Satellite 22 Nov 09:53:32 09:57:10 69° 100° (E) 10:00:51 145.860
DELFI C3 22 Nov 10:37:45 10:40:11 16° 284° (WNW) 10:42:38 145.870
UNISAT 6 22 Nov 10:40:27 10:43:49 20° 260° (W) 10:47:10 437.425
TIGRISAT 22 Nov 10:44:29 10:47:50 20° 260° (W) 10:51:09 435.000
ESTCUBE 1 22 Nov 10:52:15 10:55:11 17° 100° (E) 10:58:06 437.505/2401.250
QB50P2 22 Nov 10:54:50 10:55:53 11° 75° (ENE) 10:56:55 145.880/145.840
AIST 2D 22 Nov 11:04:34 11:07:56 55° 78° (ENE) 11:11:17 435.315
PRISM 22 Nov 11:18:02 11:20:57 19° 260° (W) 11:23:54 437.425
PCSat 22 Nov 11:23:27 11:28:18 34° 252° (WSW) 11:33:09 145.827
JUGNU 22 Nov 11:29:06 11:34:59 62° 160° (SSE) 11:40:51 437.505
SRMSAT 22 Nov 11:30:08 11:31:56 11° 160° (SSE) 11:33:45 437.500
DUCHIFAT 1 22 Nov 11:39:39 11:43:23 31° 77° (ENE) 11:47:06 145.980
LO-87 22 Nov 11:43:20 11:46:41 44° 282° (WNW) 11:50:01 145.935 - 145.965
EO-79 22 Nov 11:48:03 11:52:15 60° 78° (ENE) 11:56:25 145.935-145.965
NANOSAT C BR1 22 Nov 11:50:30 11:54:39 55° 78° (ENE) 11:58:46 145.865
SPROUT 22 Nov 11:55:04 11:58:04 19° 100° (E) 12:01:05 437.525
POLYITAN 1 22 Nov 12:03:39 12:07:55 79° 259° (W) 12:12:08 437.675
O/OREOS (USA 219) 22 Nov 12:16:24 12:20:35 36° 103° (ESE) 12:24:46 437.305
BEESAT 3 22 Nov 12:16:38 12:19:43 23° 65° (ENE) 12:22:46 437.485
NO-84 22 Nov 12:20:24 12:21:36 12° 119° (ESE) 12:22:49 435.350 FM
BUGSAT 1 22 Nov 12:27:29 12:30:55 24° 76° (ENE) 12:34:20 437.445
QB50P2 22 Nov 12:27:34 12:31:19 30° 259° (W) 12:35:04 145.880/145.840
ESTCUBE 1 22 Nov 12:28:12 12:31:44 23° 284° (WNW) 12:35:17 437.505/2401.250
VELOX 1 22 Nov 12:42:17 12:46:35 51° 101° (ESE) 12:50:51 145.980
50 SAT 22 Nov 13:09:41 13:11:38 15° 100° (E) 13:13:34 437.505
SRMSAT 22 Nov 13:16:01 13:21:15 32° 158° (SSE) 13:26:29 437.500
JUGNU 22 Nov 13:18:15 13:24:05 57° 345° (NNW) 13:29:52 437.505
DUCHIFAT 1 22 Nov 13:18:23 13:18:51 10° 261° (W) 13:19:19 145.980
DX 1 22 Nov 13:24:09 13:27:52 28° 101° (E) 13:31:35 434.975-435.025
Oscar 19 22 Nov 13:26:23 13:31:29 71° 77° (ENE) 13:36:33 437.125/150
BEESAT 2 22 Nov 13:30:30 13:34:20 51° 67° (ENE) 13:38:07 435.950
SPROUT 22 Nov 13:30:56 13:33:41 17° 284° (WNW) 13:36:27 437.525
AO-85 22 Nov 13:31:24 13:35:12 21° 66° (ENE) 13:39:05 145.980
BEESAT 3 22 Nov 13:55:41 13:56:55 11° 250° (WSW) 13:58:09 437.485
NO-84 22 Nov 13:56:12 13:58:35 19° 307° (NW) 14:01:05 435.350 FM
O/OREOS (USA 219) 22 Nov 13:59:15 13:59:51 10° 289° (WNW) 14:00:26 437.305
Gurwin Techsat 1B 22 Nov 14:02:02 14:07:18 68° 258° (WSW) 14:12:34 435.225
UKube-1 22 Nov 14:02:54 14:07:06 54° 102° (ESE) 14:11:18 .
BUGSAT 1 22 Nov 14:04:00 14:06:02 13° 260° (W) 14:08:05 437.445
AO-7 22 Nov 14:56:08 15:03:58 48° 72° (ENE) 15:11:47 .
FALCONSAT 3 22 Nov 14:59:47 15:01:15 12° 29° (NNE) 15:02:45 435.103
DX 1 22 Nov 15:01:51 15:03:43 13° 285° (WNW) 15:05:34 434.975-435.025
SRMSAT 22 Nov 15:04:27 15:10:23 86° 162° (SSE) 15:16:19 437.500
M-CUBED/EXP-1 PRIME 22 Nov 15:05:26 15:08:27 33° 256° (WSW) 15:11:36 437.505
JUGNU 22 Nov 15:08:10 15:13:29 34° 354° (N) 15:18:46 437.505
AO-85 22 Nov 15:11:07 15:15:26 27° 249° (WSW) 15:19:54 145.980
ITAMSAT 1 22 Nov 15:21:54 15:26:52 46° 76° (ENE) 15:31:50 435.822/435.867
BEESAT 22 Nov 15:29:01 15:33:42 64° 102° (ESE) 15:38:23 436.000
MOZHAYETS 4 22 Nov 15:38:52 15:43:22 63° 282° (WNW) 15:47:54
ITUPSAT 1 22 Nov 15:39:36 15:44:21 86° 102° (ESE) 15:49:06 437.325
CUBESAT XI-V 22 Nov 15:54:35 15:58:43 31° 100° (E) 16:02:50 437.345
RS-15 22 Nov 16:04:47 16:12:02 18° 107° (ESE) 16:19:19 29.354- 29.394
FALCONSAT 3 22 Nov 16:36:48 16:40:29 81° 216° (SW) 16:44:10 435.103
AO-7 22 Nov 16:50:24 16:56:30 23° 256° (WSW) 17:02:37 .
YUBILEINY 22 Nov 16:52:46 17:01:12 49° 85° (E) 17:09:34 435.215
SRMSAT 22 Nov 16:54:05 16:59:43 45° 348° (NNW) 17:05:22 437.500
JUGNU 22 Nov 16:57:49 17:03:04 33° 5° (N) 17:08:18 437.505
DOVE 4 22 Nov 17:02:41 17:07:26 86° 80° (E) 17:12:29 437.250
ITAMSAT 1 22 Nov 17:04:51 17:06:10 11° 260° (W) 17:07:30 435.822/435.867
CUTE-I 22 Nov 17:08:14 17:09:29 11° 73° (ENE) 17:10:44 437.470
KKS-1 22 Nov 17:20:10 17:24:34 67° 102° (ESE) 17:28:57 437.445
XW-2D 22 Nov 17:28:09 17:30:58 20° 77° (ENE) 17:33:46 145.860 - 145.880
CUBESAT XI-V 22 Nov 17:33:26 17:35:44 14° 285° (WNW) 17:38:02 437.345
STARS 22 Nov 17:40:24 17:44:25 37° 101° (E) 17:48:25 437.465
XW-2B 22 Nov 17:42:28 17:45:49 32° 78° (ENE) 17:49:09 145.730 - 145.750
NUDT-PHONESAT 22 Nov 17:50:57 17:54:03 27° 78° (ENE) 17:57:08 437.300
XW-2C 22 Nov 18:07:45 18:11:28 87° 258° (WSW) 18:15:11 145.795 - 145.815
ISS 22 Nov 18:09:29 18:12:25 30° 125° (SE) 18:15:20 437.550
RS-15 22 Nov 18:11:37 18:23:39 77° 292° (WNW) 18:36:01 29.354- 29.394
LilacSat-2 22 Nov 18:11:41 18:15:25 67° 260° (W) 18:19:07 437.200
XW-2F 22 Nov 18:17:01 18:20:42 67° 259° (W) 18:24:22 145.980 - 146.000
CUBEBUG 2 22 Nov 18:24:12 18:26:07 12° 76° (ENE) 18:28:02 437.445
